Regional Weather Roundup
Issued by NWS

Home | Current Version | Previous Version | Text Only | Print | Product List | Glossary Off
Versions: 1 2 3 4 5 6 7 8 9 10 11 12 13 14 15 16 17 18 19 20 21 22 23 24 25 26 27 28 29 30 31 32 33 34 35 36 37 38 39 40 41 42 43 44 45 46 47 48 49 50

434
ASUS44 KMEG 030610
RWRTN
TENNESSEE HOURLY STATE WEATHER ROUNDUP
NATIONAL WEATHER SERVICE MEMPHIS TN
100 AM CDT TUE MAY 03 2016

TNZ002-004-019-021-049-052-054-088>092-030700-
WEST TENNESSEE

CITY           SKY/WX    TMP DP  RH WIND       PRES   REMARKS
MEMPHIS INTL   CLOUDY    62  53  72 VRB6      29.99S
NWS MEMPHIS      N/A     58 N/A N/A MISG        N/A
JACKSON        CLOUDY    60  55  83 N6        29.97F
DYERSBURG      CLOUDY    57  52  82 N7          N/A
UNION CITY     CLOUDY    57  52  82 N9        29.99S
LEXINGTON      CLOUDY    57  55  94 NE5       29.96F
$$

TNZ008-025-027-028-033-062-065-066-030700-
NORTH MIDDLE TENNESSEE

CITY           SKY/WX    TMP DP  RH WIND       PRES   REMARKS
NASHVILLE      CLOUDY    59  55  87 NW6       29.96S
CLARKSVILLE    CLOUDY    56  50  80 N6        29.97F
SMYRNA         CLOUDY    59  58  96 NW8       29.97S
COOKEVILLE     CLOUDY    59  57  94 N3        29.93F
CROSSVILLE     CLOUDY    59  57  93 NW5       29.92F
$$

TNZ061-075-076-078-094-096-097-030700-
SOUTH MIDDLE TENNESSEE

CITY           SKY/WX    TMP DP  RH WIND       PRES   REMARKS
FAYETTEVILLE   CLOUDY    61  59  94 NW5       29.94S
TULLAHOMA      CLOUDY    57  57 100 N7        29.95S
WINCHESTER     CLOUDY    61  57  88 N5        29.94S
MCMINNVILLE    CLOUDY    59  59 100 N3        29.93F
COLUMBIA       CLOUDY   N/A N/A N/A CALM      29.95S
SHELBYVILLE    MOCLDY    61  61 100 NW5       29.96S
$$

TNZ017-018-042-046-047-030700-
NORTHEAST TENNESSEE

CITY           SKY/WX    TMP DP  RH WIND       PRES   REMARKS
TRI CITIES     CLOUDY    59  57  93 CALM      29.91S
$$

TNZ012-013-036-069-073-074-030700-
CENTRAL EAST TENNESSEE

CITY           SKY/WX    TMP DP  RH WIND       PRES   REMARKS
KNOXVILLE      LGT RAIN  62  59  90 CALM      29.89F
OAK RIDGE      CLOUDY    62  59  90 CALM      29.91F
GATLINBURG     CLOUDY    61  61 100 N3        29.90S
MORRISTOWN     CLOUDY    61  59  94 N5        29.90S
$$

TNZ083-085-099-030700-
SOUTHEAST TENNESSEE

CITY           SKY/WX    TMP DP  RH WIND       PRES   REMARKS
CHATTANOOGA    CLOUDY    65  63  93 NW5       29.90F
$$

SKY/WX REPORTED AS FAIR MEANS FEW OR NO CLOUDS BELOW
12 THOUSAND FEET.





USA.gov is the U.S. government's official web portal to all federal, state and local government web resources and services.